CW6099 Weather Reports


Display with metric or nautical units.
time (UTC)temp
F
wind
direction
speed
MPH
gust
MPH
rain 1hr
in
rain 24hr
in
rain mn
in
humidity
%
barometer
mb
20260507134418 45 249 14.0 22.0 0.00 0.39 0.00 85 1014.9
20260507134311 45 232 15.0 22.0 0.00 0.39 0.00 85 1014.9
20260507133423 44 240 17.0 22.0 0.00 0.39 0.00 87 1014.8
20260507133316 44 246 16.0 21.0 0.00 0.39 0.00 87 1014.8
20260507132427 42 243 14.0 20.0 0.00 0.39 0.00 89 1014.8
20260507132323 42 227 14.0 20.0 0.00 0.39 0.00 89 1014.7
20260507131414 41 237 14.0 21.0 0.00 0.39 0.00 89 1014.7
20260507131327 41 235 15.0 21.0 0.00 0.39 0.00 89 1014.7
20260507130438 40 257 12.0 18.0 0.00 0.39 0.00 91 1014.7
20260507130329 40 226 12.0 18.0 0.00 0.39 0.00 91 1014.7
20260507125419 39 257 14.0 19.0 0.00 0.39 0.00 92 1014.6
20260507125310 39 262 14.0 19.0 0.00 0.39 0.00 92 1014.6
20260507124419 38 240 12.0 16.0 0.00 0.39 0.00 93 1014.7
20260507124312 38 224 12.0 17.0 0.00 0.39 0.00 93 1014.7
20260507123423 37 261 11.0 18.0 0.00 0.39 0.00 94 1014.7
20260507123320 37 256 12.0 18.0 0.00 0.39 0.00 94 1014.7
20260507122410 36 261 12.0 17.0 0.00 0.39 0.00 94 1014.7
20260507122343 36 265 12.0 16.0 0.00 0.39 0.00 94 1014.6
20260507121433 36 234 12.0 17.0 0.00 0.39 0.00 95 1014.7
20260507121324 36 221 12.0 17.0 0.00 0.39 0.00 95 1014.7
20260507120416 35 247 11.0 16.0 0.00 0.39 0.00 95 1014.8
20260507120328 35 234 12.0 16.0 0.00 0.39 0.00 95 1014.8
20260507115418 35 250 10.0 16.0 0.00 0.39 0.00 95 1014.8
20260507115309 35 260 10.0 16.0 0.00 0.39 0.00 96 1014.8
20260507114439 34 252 11.0 16.0 0.00 0.39 0.00 96 1014.8
20260507114313 34 221 11.0 16.0 0.00 0.39 0.00 96 1014.8
20260507113425 34 234 11.0 15.0 0.00 0.39 0.00 95 1014.9
20260507113319 34 236 11.0 15.0 0.00 0.39 0.00 95 1014.9
20260507112409 34 254 11.0 17.0 0.00 0.39 0.00 95 1015.1
20260507112322 34 250 12.0 17.0 0.00 0.39 0.00 95 1015.1
20260507111413 35 224 12.0 16.0 0.00 0.39 0.00 95 1015.1
20260507111326 35 237 11.0 16.0 0.00 0.39 0.00 95 1015.1
20260507110418 35 233 12.0 18.0 0.00 0.39 0.00 95 1015.2
20260507110314 35 245 13.0 18.0 0.00 0.39 0.00 95 1015.3
20260507105425 35 222 12.0 15.0 0.00 0.40 0.00 95 1015.2
20260507105338 35 246 11.0 18.0 0.00 0.40 0.00 95 1015.2
20260507104427 35 236 14.0 19.0 0.00 0.40 0.00 96 1015.5
20260507104319 35 236 13.0 19.0 0.00 0.40 0.00 96 1015.5
20260507103412 35 236 13.0 17.0 0.00 0.40 0.00 96 1015.5
20260507103324 35 236 13.0 17.0 0.00 0.40 0.00 96 1015.5
20260507102413 35 235 12.0 15.0 0.00 0.40 0.00 96 1015.6
20260507102324 35 232 12.0 15.0 0.00 0.40 0.00 96 1015.6
20260507101436 35 237 12.0 15.0 0.00 0.40 0.00 96 1015.6
20260507101312 35 225 12.0 15.0 0.00 0.40 0.00 96 1015.7
20260507100423 35 234 11.0 18.0 0.00 0.40 0.00 97 1015.8
20260507100336 35 232 13.0 18.0 0.00 0.40 0.00 97 1015.8
20260507095423 34 225 13.0 16.0 0.00 0.46 0.00 97 1015.8
20260507095315 34 246 11.0 14.0 0.00 0.46 0.00 97 1015.9
20260507094447 34 232 9.0 14.0 0.00 0.46 0.00 97 1016.1
20260507094319 34 240 9.0 14.0 0.00 0.46 0.00 97 1016.1
20260507093411 34 250 10.0 15.0 0.00 0.46 0.00 97 1016.1
20260507093324 34 232 10.0 15.0 0.00 0.46 0.00 97 1016.1
20260507092416 34 237 11.0 16.0 0.00 0.46 0.00 98 1016.1
20260507092313 34 255 12.0 16.0 0.00 0.46 0.00 98 1016.1
20260507091424 34 244 11.0 16.0 0.00 0.46 0.00 97 1016.3
20260507091315 34 244 11.0 16.0 0.00 0.46 0.00 97 1016.3
20260507090427 34 229 12.0 18.0 0.00 0.46 0.00 97 1016.4
20260507090339 34 232 12.0 19.0 0.00 0.46 0.00 97 1016.5
20260507085411 34 236 14.0 18.0 0.00 0.50 0.00 97 1016.7
20260507085322 34 230 14.0 18.0 0.00 0.50 0.00 97 1016.6
20260507084415 34 229 15.0 19.0 0.00 0.50 0.00 97 1016.7
20260507084325 34 239 15.0 18.0 0.00 0.50 0.00 97 1016.7
20260507083416 34 230 14.0 18.0 0.00 0.50 0.00 97 1016.7
20260507083313 34 226 15.0 18.0 0.00 0.50 0.00 97 1016.7
20260507082444 35 228 13.0 17.0 0.00 0.50 0.00 97 1016.7
20260507082318 35 228 13.0 17.0 0.00 0.50 0.00 97 1016.8
20260507081409 35 217 12.0 17.0 0.00 0.50 0.00 97 1016.8
20260507081322 35 235 12.0 18.0 0.00 0.50 0.00 97 1016.9
20260507080414 35 229 13.0 19.0 0.00 0.50 0.00 97 1017.1
20260507080347 35 234 14.0 19.0 0.00 0.50 0.00 97 1017.1
20260507075417 35 223 13.0 19.0 0.00 0.52 0.00 98 1017.3
20260507075309 35 231 14.0 19.0 0.00 0.52 0.00 98 1017.3
20260507074420 34 229 15.0 18.0 0.00 0.52 0.00 98 1017.3
20260507074318 34 229 14.0 18.0 0.00 0.52 0.00 98 1017.3
20260507073428 34 234 13.0 16.0 0.00 0.52 0.00 98 1017.4
20260507073322 34 229 13.0 16.0 0.00 0.52 0.00 98 1017.5
20260507072433 34 235 13.0 16.0 0.00 0.52 0.00 97 1017.7
20260507072345 34 243 13.0 16.0 0.00 0.52 0.00 97 1017.7
20260507071416 34 229 12.0 14.0 0.00 0.52 0.00 97 1017.9
20260507071349 34 227 12.0 14.0 0.00 0.52 0.00 97 1017.9
20260507070418 34 233 11.0 16.0 0.00 0.52 0.00 97 1018.0
20260507070311 34 219 11.0 16.0 0.00 0.52 0.00 97 1018.0
20260507065423 35 242 11.0 15.0 0.00 0.55 0.00 97 1018.1
20260507065316 35 230 12.0 15.0 0.00 0.55 0.00 97 1018.1
20260507064428 35 221 11.0 16.0 0.00 0.55 0.00 97 1018.1
20260507064319 35 227 11.0 16.0 0.00 0.55 0.00 97 1018.1
20260507063431 35 242 12.0 17.0 0.00 0.55 0.00 97 1018.3
20260507063323 35 241 13.0 17.0 0.00 0.55 0.00 97 1018.3
20260507062413 35 243 12.0 15.0 0.00 0.55 0.00 97 1018.4
20260507062326 35 230 13.0 15.0 0.00 0.55 0.00 97 1018.4
20260507061417 35 231 10.0 14.0 0.00 0.55 0.00 97 1018.6
20260507061310 35 234 10.0 14.0 0.00 0.55 0.00 97 1018.6
20260507060422 36 226 12.0 18.0 0.00 0.55 0.00 97 1018.5
20260507060318 36 223 12.0 18.0 0.00 0.55 0.00 97 1018.5
20260507055410 36 234 10.0 14.0 0.00 0.56 0.55 97 1018.6
20260507055322 36 214 11.0 14.0 0.00 0.56 0.55 97 1018.5
20260507054415 36 222 10.0 15.0 0.00 0.56 0.55 97 1018.5
20260507054328 36 218 10.0 15.0 0.00 0.56 0.55 97 1018.6
20260507053438 36 218 10.0 13.0 0.00 0.56 0.55 97 1018.6
20260507053311 36 211 10.0 13.0 0.00 0.56 0.55 97 1018.6
20260507052443 36 211 10.0 13.0 0.00 0.56 0.55 97 1018.8
20260507052318 36 228 9.0 11.0 0.00 0.56 0.55 97 1018.8
20260507051410 36 230 9.0 15.0 0.00 0.56 0.55 97 1018.9
20260507051323 36 219 9.0 15.0 0.00 0.56 0.55 97 1018.8
20260507050435 36 242 10.0 15.0 0.00 0.56 0.55 97 1018.8
20260507050325 36 222 10.0 15.0 0.00 0.56 0.55 97 1018.8
20260507045414 36 221 9.0 14.0 0.00 0.63 0.55 97 1019.0
20260507045347 36 187 9.0 14.0 0.00 0.63 0.55 97 1019.0
20260507044418 36 222 9.0 14.0 0.00 0.63 0.55 97 1019.1
20260507044311 36 242 9.0 14.0 0.00 0.63 0.55 97 1019.1
20260507043422 36 229 9.0 12.0 0.00 0.63 0.55 97 1019.0
20260507043320 36 224 9.0 12.0 0.00 0.63 0.55 97 1019.0
20260507042449 36 212 8.0 11.0 0.00 0.63 0.55 97 1019.0
20260507042321 37 227 8.0 11.0 0.00 0.63 0.55 97 1019.0
20260507041413 36 221 8.0 12.0 0.00 0.63 0.55 97 1019.1
20260507041326 36 227 8.0 12.0 0.00 0.63 0.55 97 1019.1
20260507040417 37 220 8.0 11.0 0.00 0.63 0.55 96 1019.1
20260507040310 36 229 8.0 11.0 0.00 0.63 0.55 96 1019.2
20260507035423 37 227 9.0 12.0 0.00 0.70 0.55 96 1019.3
20260507035320 37 215 8.0 11.0 0.00 0.70 0.55 96 1019.2
20260507034430 37 226 9.0 12.0 0.00 0.70 0.55 96 1019.2
20260507034321 37 225 8.0 11.0 0.00 0.70 0.55 96 1019.2
20260507033412 37 232 8.0 11.0 0.00 0.70 0.55 96 1019.3
20260507033325 37 229 8.0 11.0 0.00 0.70 0.55 96 1019.1
20260507032415 37 221 8.0 10.0 0.00 0.70 0.55 96 1019.2
20260507032329 37 232 7.0 10.0 0.00 0.70 0.55 96 1019.2
20260507031439 37 225 8.0 10.0 0.00 0.70 0.55 96 1019.2
20260507031309 37 219 8.0 10.0 0.00 0.70 0.55 96 1019.1
20260507030420 37 214 7.0 9.0 0.00 0.70 0.55 96 1019.1
20260507030317 37 223 8.0 10.0 0.00 0.70 0.55 96 1019.2
20260507025410 37 216 6.0 9.0 0.00 0.76 0.55 96 1019.0
20260507025322 37 219 6.0 9.0 0.00 0.76 0.55 96 1019.0
20260507024414 37 230 7.0 9.0 0.00 0.76 0.55 95 1019.0
20260507024324 37 232 7.0 9.0 0.00 0.76 0.55 95 1019.0
20260507023434 37 234 7.0 9.0 0.00 0.76 0.55 94 1018.8
20260507023323 37 236 7.0 8.0 0.00 0.76 0.55 94 1018.8
20260507022411 38 233 7.0 9.0 0.00 0.76 0.55 94 1018.8
20260507022328 38 240 7.0 9.0 0.00 0.76 0.55 94 1018.8
20260507021419 38 240 5.0 8.0 0.00 0.76 0.55 93 1018.8
20260507021333 38 230 5.0 8.0 0.00 0.76 0.55 92 1018.8
20260507020421 39 252 5.0 7.0 0.00 0.76 0.55 92 1018.7
20260507020314 39 238 5.0 8.0 0.00 0.76 0.55 92 1018.7
20260507015426 40 247 5.0 10.0 0.00 0.77 0.55 92 1018.6
20260507015318 40 233 7.0 10.0 0.00 0.77 0.55 92 1018.5
20260507014428 41 224 8.0 10.0 0.00 0.77 0.55 92 1018.6
20260507014318 41 221 9.0 10.0 0.00 0.77 0.55 92 1018.6
20260507013448 41 228 7.0 11.0 0.00 0.77 0.55 92 1018.5
20260507013324 41 227 7.0 10.0 0.00 0.77 0.55 92 1018.5
20260507012414 42 230 9.0 11.0 0.00 0.77 0.55 91 1018.6
20260507012327 42 234 9.0 11.0 0.00 0.77 0.55 91 1018.6
20260507011438 42 235 8.0 12.0 0.00 0.77 0.55 90 1018.5
20260507011310 42 223 8.0 12.0 0.00 0.77 0.55 90 1018.6
20260507010442 43 215 10.0 15.0 0.00 0.77 0.55 89 1018.5
20260507010313 43 213 9.0 15.0 0.00 0.77 0.55 89 1018.5
20260507005425 43 242 11.0 15.0 0.00 0.77 0.55 88 1018.5
20260507005317 43 231 11.0 15.0 0.00 0.77 0.55 88 1018.6
20260507004414 44 234 10.0 15.0 0.00 0.77 0.55 89 1018.6
20260507004327 44 230 10.0 15.0 0.00 0.77 0.55 88 1018.5
20260507003418 44 236 12.0 15.0 0.00 0.77 0.55 88 1018.6
20260507003312 44 211 12.0 15.0 0.00 0.77 0.55 88 1018.6
20260507002442 44 215 10.0 14.0 0.00 0.77 0.55 88 1018.5
20260507002335 44 220 10.0 14.0 0.00 0.77 0.55 89 1018.5
20260507001444 44 228 10.0 12.0 0.00 0.77 0.55 92 1018.6
20260507001317 44 226 9.0 12.0 0.00 0.77 0.55 92 1018.6
20260507000450 43 223 7.0 11.0 0.00 0.77 0.55 91 1018.6
20260507000321 43 223 8.0 11.0 0.00 0.77 0.55 91 1018.6
20260506235430 43 207 7.0 11.0 0.00 0.77 0.55 92 1018.7
20260506235324 43 242 8.0 11.0 0.00 0.77 0.55 91 1018.7
20260506234416 43 215 8.0 12.0 0.00 0.77 0.55 92 1018.7
20260506234326 43 181 7.0 12.0 0.00 0.77 0.55 92 1018.8
20260506233414 43 208 8.0 12.0 0.01 0.77 0.55 91 1018.9
20260506233328 43 219 9.0 12.0 0.01 0.77 0.55 92 1018.9
20260506232419 43 204 9.0 13.0 0.01 0.77 0.55 91 1018.9
20260506232313 43 197 9.0 14.0 0.01 0.77 0.55 91 1018.9
20260506231424 43 221 8.0 14.0 0.02 0.77 0.55 92 1019.1
20260506231336 43 215 9.0 14.0 0.02 0.77 0.55 93 1019.0
20260506230410 43 206 8.0 10.0 0.03 0.77 0.55 93 1018.9
20260506230322 43 239 8.0 10.0 0.03 0.77 0.55 94 1018.9
20260506225433 43 215 6.0 9.0 0.04 0.77 0.55 94 1018.8
20260506225324 43 232 5.0 9.0 0.04 0.77 0.55 94 1018.8
20260506224415 42 240 7.0 10.0 0.07 0.77 0.55 93 1018.8
20260506224326 42 242 7.0 10.0 0.07 0.77 0.55 93 1018.9
20260506223416 42 219 4.0 8.0 0.07 0.76 0.54 94 1018.9
20260506223329 42 232 4.0 8.0 0.07 0.76 0.54 94 1018.9
20260506222421 42 233 6.0 8.0 0.07 0.76 0.54 94 1019.0
20260506222317 42 246 5.0 7.0 0.07 0.76 0.54 94 1019.0
20260506221445 42 234 5.0 10.0 0.06 0.75 0.53 94 1019.0
20260506221321 42 246 7.0 10.0 0.06 0.75 0.53 94 1019.0
20260506220412 42 252 6.0 9.0 0.05 0.74 0.52 94 1019.0
20260506220324 42 238 5.0 7.0 0.05 0.74 0.52 94 1019.0
20260506215415 42 230 3.0 12.0 0.05 0.81 0.51 92 1019.0
20260506215348 42 225 3.0 12.0 0.05 0.81 0.51 91 1019.0
20260506214419 42 267 7.0 10.0 0.02 0.78 0.48 91 1019.0
20260506214311 43 247 5.0 9.0 0.02 0.78 0.48 91 1019.1
20260506213444 43 229 5.0 7.0 0.01 0.77 0.47 91 1019.1
20260506213321 43 250 6.0 7.0 0.01 0.77 0.47 91 1019.1
20260506212413 43 223 4.0 8.0 0.01 0.77 0.47 90 1019.1
20260506212325 43 232 4.0 8.0 0.01 0.77 0.47 88 1019.0
20260506211415 43 203 4.0 9.0 0.01 0.77 0.47 89 1019.0
20260506211327 43 207 5.0 9.0 0.01 0.77 0.47 89 1019.0
20260506210418 43 197 2.0 8.0 0.01 0.77 0.47 89 1019.1
20260506210331 43 180 3.0 8.0 0.01 0.77 0.47 89 1019.1
20260506205421 43 213 6.0 8.0 0.00 0.78 0.46 90 1019.1
20260506205314 43 202 6.0 8.0 0.00 0.78 0.46 91 1019.1
20260506204426 43 195 5.0 7.0 0.00 0.78 0.46 91 1019.3
20260506204323 43 180 5.0 7.0 0.00 0.78 0.46 90 1019.3
20260506203415 43 246 4.0 6.0 0.00 0.78 0.46 90 1019.3
20260506203327 43 210 4.0 6.0 0.00 0.78 0.46 90 1019.3
20260506202437 43 218 5.0 8.0 0.00 0.78 0.46 90 1019.3
20260506202326 43 194 5.0 8.0 0.00 0.78 0.46 90 1019.3
20260506201436 43 212 4.0 7.0 0.00 0.78 0.46 91 1019.3
20260506201326 43 192 3.0 6.0 0.00 0.78 0.46 91 1019.3
20260506200416 43 198 3.0 6.0 0.00 0.78 0.46 90 1019.2
20260506200329 43 155 3.0 6.0 0.00 0.78 0.46 92 1019.2
20260506195422 43 155 5.0 9.0 0.00 0.80 0.46 92 1019.1
20260506195317 43 139 6.0 9.0 0.00 0.80 0.46 91 1019.1
20260506194429 42 167 3.0 7.0 0.00 0.80 0.46 91 1019.2
20260506194320 42 194 4.0 7.0 0.00 0.80 0.46 91 1019.2
20260506193411 42 180 4.0 7.0 0.00 0.80 0.46 91 1019.3
20260506193344 42 152 5.0 7.0 0.00 0.80 0.46 90 1019.3
20260506192413 42 186 3.0 7.0 0.00 0.80 0.46 90 1019.3
20260506192326 42 169 3.0 7.0 0.00 0.80 0.46 90 1019.3
20260506191418 42 150 6.0 7.0 0.01 0.80 0.46 93 1019.2
20260506191315 42 165 5.0 7.0 0.01 0.80 0.46 91 1019.1
20260506190427 42 144 3.0 6.0 0.01 0.80 0.46 92 1019.2
20260506190338 42 141 4.0 6.0 0.01 0.80 0.46 92 1019.2
20260506185429 42 161 3.0 7.0 0.01 0.80 0.46 93 1019.3
20260506185321 42 148 4.0 7.0 0.01 0.80 0.46 93 1019.3
20260506184411 41 170 3.0 7.0 0.01 0.80 0.46 92 1019.4
20260506184324 41 149 3.0 7.0 0.01 0.80 0.46 93 1019.4
20260506183436 41 63 1.0 7.0 0.01 0.80 0.46 94 1019.6
20260506183330 41 28 1.0 7.0 0.01 0.80 0.46 93 1019.5
20260506182417 40 126 3.0 5.0 0.02 0.80 0.46 95 1019.6
20260506182312 40 122 3.0 5.0 0.01 0.79 0.45 95 1019.6
20260506181423 40 136 2.0 3.0 0.01 0.79 0.45 94 1019.7
20260506181315 40 155 2.0 3.0 0.01 0.79 0.45 94 1019.7
20260506180439 40 117 1.0 5.0 0.02 0.79 0.45 95 1019.7
20260506180311 39 96 1.0 6.0 0.02 0.79 0.45 94 1019.8
20260506175422 39 118 1.0 7.0 0.03 0.79 0.45 95 1019.7
20260506175316 39 142 1.0 7.0 0.04 0.79 0.45 95 1019.7
20260506174426 38 84 1.0 4.0 0.05 0.79 0.45 96 1019.8
20260506174319 38 160 1.0 4.0 0.05 0.79 0.45 96 1019.7
20260506173416 38 82 1.0 3.0 0.07 0.79 0.45 96 1019.8
20260506173329 38 82 1.0 3.0 0.07 0.79 0.45 96 1019.8
20260506172420 38 279 1.0 5.0 0.08 0.78 0.44 96 1019.8
20260506172313 38 164 2.0 5.0 0.08 0.78 0.44 96 1019.8
20260506171424 37 101 3.0 7.0 0.10 0.78 0.44 97 1019.8
20260506171316 37 130 3.0 7.0 0.10 0.78 0.44 96 1019.8
20260506170427 37 91 2.0 5.0 0.11 0.77 0.43 96 1019.7
20260506170321 37 234 1.0 5.0 0.11 0.77 0.43 96 1019.7
20260506165452 37 147 4.0 7.0 0.12 0.76 0.42 97 1019.7
20260506165326 37 141 4.0 7.0 0.12 0.76 0.41 97 1019.6
20260506164418 36 134 3.0 5.0 0.13 0.75 0.40 97 1019.6
20260506164311 36 140 2.0 5.0 0.13 0.75 0.40 97 1019.5
20260506163423 36 136 4.0 7.0 0.13 0.73 0.38 97 1019.5
20260506163314 36 115 3.0 7.0 0.14 0.73 0.38 97 1019.4
20260506162425 36 74 2.0 4.0 0.13 0.71 0.36 97 1019.4
20260506162314 35 86 2.0 4.0 0.14 0.71 0.36 97 1019.4
20260506161446 35 198 2.0 4.0 0.13 0.69 0.34 97 1019.3
20260506161338 35 20 2.0 4.0 0.13 0.69 0.34 97 1019.3
20260506160409 35 63 2.0 3.0 0.12 0.67 0.32 97 1019.3
20260506160346 35 124 2.0 3.0 0.12 0.67 0.32 97 1019.2
20260506155413 35 46 1.0 3.0 0.09 0.64 0.29 98 1019.1
20260506155325 35 145 1.0 3.0 0.09 0.64 0.29 98 1019.1
20260506154417 34 83 2.0 4.0 0.08 0.62 0.27 98 1018.9
20260506154327 34 82 2.0 4.0 0.08 0.62 0.27 98 1018.9
20260506153417 34 80 2.0 4.0 0.07 0.60 0.25 98 1019.0
20260506153311 34 87 2.0 4.0 0.06 0.59 0.24 98 1019.0
20260506152422 34 82 2.0 3.0 0.06 0.58 0.23 98 1018.9
20260506152315 34 79 1.0 3.0 0.05 0.57 0.22 98 1018.9
20260506151410 34 92 1.0 3.0 0.04 0.56 0.21 98 1018.9
20260506151324 34 92 1.0 3.0 0.04 0.56 0.21 98 1018.9
20260506150413 34 131 0.0 2.0 0.03 0.55 0.20 98 1019.0
20260506150326 34 131 0.0 2.0 0.03 0.55 0.20 98 1018.9
20260506145418 33 170 1.0 2.0 0.04 0.55 0.20 98 1019.0
20260506145326 33 170 1.0 2.0 0.04 0.55 0.20 98 1019.0
20260506144418 33 192 0.0 0.0 0.03 0.54 0.19 98 1019.0
20260506144311 33 192 0.0 0.0 0.03 0.54 0.19 98 1019.0
20260506143442 33 192 0.0 0.0 0.02 0.53 0.18 98 1019.0
20260506143318 33 192 0.0 0.0 0.02 0.53 0.18 98 1019.0
20260506142429 34 192 0.0 0.0 0.01 0.52 0.17 98 1018.9
20260506142319 33 192 0.0 0.0 0.01 0.52 0.17 98 1019.0
20260506141409 34 192 0.0 1.0 0.01 0.52 0.17 98 1019.0
20260506141322 34 192 0.0 1.0 0.01 0.52 0.17 98 1019.0
20260506140413 34 192 0.0 2.0 0.01 0.52 0.17 98 1018.9
20260506140327 34 192 0.0 2.0 0.01 0.52 0.17 98 1018.9
20260506135415 34 192 0.0 0.0 0.00 0.51 0.16 98 1018.9
20260506135327 34 192 0.0 0.0 0.00 0.51 0.16 98 1018.9